User: anonymous   Login
Location: Unspecified
(0.0000°N, 0.0000°E)
Time: 19:12:55
(UTC+02:00)
Language:

SeaSat 1 - Orbit

View from above orbital plane
View from above orbital plane
View from above satellite
View from above satellite

Ground track
Ground track

The orbit data is extracted from the following two-line orbital elements,

1 10967U 78064A   16208.44037709 -.00000012  00000-0  36751-4 0  9999
2 10967 108.0036 338.8475 0000880 272.1858  87.9186 14.43565023999593
Epoch (UTC): 26 July 2016 10:34:08
Eccentricity: 0.0000880
inclination: 108.0036°
perigee height: 746 km
apogee height: 747 km
right ascension of ascending node: 338.8475°
argument of perigee: 272.1858°
revolutions per day: 14.43565023
mean anomaly at epoch: 87.9186°
orbit number at epoch: 99959

The dashed part of the orbit path shows where the satellite is in the earth's shadow,  

DLR